[[{"header":{"parameterUnit":"m.s-1","parameterCategory":1,"la1":30.2991,"la2":30.254,"lo1":-89.0895,"lo2":-89.0444,"dy":0.0017,"dx":0.0017,"nx":28,"ny":28,"refTime":"2024-07-19T21:00:00:Z","depth":0,"parameterNumber":2,"parameterNumberName":"U-component_of_WINDS"},"data":[0,0,0,0,0,0,0,0,0,0,0,0,0,0,0,0,0,0,0,0,0,0,0,0,0,0,0,0,0,0,0,0,0,0,0,0,0,0,0,0,0,0,0,0,0,0,0,0,0,0,0,0,0,0,0,0,0,0,3.5092,3.5092,0,3.5115,3.5116,3.5116,3.5022,3.5019,3.5016,3.5013,3.5038,3.5042,3.5045,0,0,0,0,0,0,0,0,0,0,0,0,0,3.4965,3.4968,3.5092,3.5092,3.5093,3.5115,3.5116,3.5116,3.5022,3.5019,3.5015,3.5012,3.5037,3.5041,3.5045,0,0,0,0,0,0,0,0,0,0,0,0,0,3.5008,3.4969,3.5092,3.5048,3.5045,3.5115,3.5116,3.5116,3.5023,3.5019,3.5014,3.501,3.5036,3.5041,3.5046,3.516,0,0,3.5061,3.5063,0,0,0,0,0,0,0,0,3.5005,3.5012,3.5054,3.5052,3.5048,3.5061,3.508,3.5131,3.5024,3.5031,3.5013,3.5008,3.505,3.5053,3.5067,3.5161,3.5162,3.5061,3.5064,3.5066,3.5068,0,0,0,0,0,0,0,3.5002,3.5011,3.5101,3.5055,3.5051,3.5027,3.5029,3.5089,3.5064,3.503,3.5023,3.5027,3.5047,3.5062,3.5067,3.5162,3.5061,3.5065,3.5068,3.507,3.5347,3.5351,0,0,0,0,0,0,3.5005,3.5009,3.5101,3.5102,3.5016,3.5033,3.5035,3.5061,3.5063,3.5059,3.5031,3.5023,3.5056,3.5061,3.5067,3.5197,3.5066,3.5071,3.5074,3.5343,3.5348,3.5353,0,0,0,0,0,0,3.5003,3.5014,3.51,3.5054,3.5063,3.504,3.507,3.5064,3.5079,3.5063,3.5058,3.5051,3.5053,3.506,3.5136,3.5196,3.5073,3.5078,3.5337,3.5344,3.535,3.546,0,0,0,0,0,0,3.5,3.5014,3.5057,3.5055,3.5065,3.5169,3.5074,3.5067,3.5087,3.5077,3.5081,3.5078,3.505,3.513,3.5141,3.5201,3.5081,3.5332,3.534,3.5348,3.5451,3.5469,3.5485,0,0,0,0,0,3.4995,3.5089,3.506,3.5072,3.5119,3.5173,3.5178,3.5144,3.5093,3.5135,3.5125,3.5077,3.5189,3.5138,3.5151,3.5213,3.5328,3.5338,3.5348,3.5443,3.5466,3.5485,0,0,0,0,0,0,3.51,3.5088,3.5056,3.5151,3.5164,3.5157,3.521,3.5171,3.5198,3.5187,3.5145,3.5146,3.5229,3.5229,3.5173,3.5321,3.5249,3.5262,3.5317,3.5339,3.5356,3.5353,3.5085,0,0,0,0,0,3.5134,3.5178,3.5165,3.5251,3.5258,3.5233,3.5255,3.5228,3.5239,3.5244,3.5239,3.5252,3.5289,3.5315,3.5349,3.5451,3.5449,3.55,3.5517,3.5532,3.5542,3.5592,3.5614,3.5385,3.5385,3.5385,0,0,3.5205,3.5203,3.5234,3.5271,3.5278,3.5323,3.5238,3.5291,3.5324,3.5252,3.5322,3.532,3.5331,3.5419,3.5458,3.5422,3.5605,3.5544,3.5556,3.5558,3.5605,3.5626,3.5645,3.5392,3.5391,3.539,0,0,3.5355,3.5361,3.543,3.5438,3.5448,3.543,3.5447,3.5446,3.544,3.551,3.5456,3.5495,3.5561,3.557,3.5583,3.5736,3.5692,3.5749,3.5838,3.5887,3.5905,3.5921,3.5971,3.599,3.576,3.576,3.576,0,3.5442,3.5508,3.5471,3.5526,3.5543,3.5479,3.5548,3.5557,3.5579,3.5591,3.555,3.5629,3.5633,3.5721,3.5758,3.5772,3.5788,3.5746,3.5906,3.5921,3.5935,3.5982,3.6002,3.5767,3.5766,3.5765,3.5765,0,3.5612,3.5659,3.5714,3.5733,3.5757,3.5819,3.579,3.5818,3.5789,3.5775,3.5846,3.5848,3.5879,3.5899,3.5872,3.5982,3.5958,3.5913,3.5839,3.5964,3.6007,3.6025,3.5776,3.5774,3.5772,3.577,0,0,3.5828,3.5825,3.5845,3.5852,3.5857,3.5893,3.5952,3.5981,3.6004,3.6021,3.6067,3.6124,3.608,3.6096,3.6069,3.6113,3.6228,3.6061,3.6061,3.6088,3.6345,3.6376,3.6398,3.6201,3.6204,3.6207,3.6343,0,3.5973,3.6071,3.6038,3.6138,3.6178,3.6118,3.6168,3.6177,3.6166,3.6199,3.6187,3.6226,3.6168,3.6176,3.6217,3.6206,3.6279,3.6196,3.624,3.6242,3.6235,3.6422,3.6456,3.6584,3.636,3.6363,3.6365,0,3.6154,3.6175,3.6279,3.6274,3.629,3.6336,3.6358,3.6391,3.6399,3.6387,3.6404,3.6367,3.6423,3.6352,3.6426,3.6371,3.6387,3.6385,3.6389,3.6388,3.6308,3.6422,3.6624,3.6642,3.6393,3.639,3.6388,0,3.6296,3.6351,3.6418,3.6426,3.6424,3.6457,3.6457,3.6461,3.648,3.65,3.6511,3.6539,3.6553,3.6575,3.6546,3.6498,3.6624,3.6551,3.6613,3.6614,3.6639,3.6637,3.6843,3.6658,3.6658,3.6657,3.6657,0,3.6458,3.6522,3.6481,3.6522,3.6592,3.6554,3.6623,3.6617,3.6621,3.6659,3.6611,3.6647,3.6609,3.6642,3.6621,3.6683,3.6692,3.6682,3.6675,3.6684,3.6685,3.6691,3.668,3.6662,3.6661,3.666,3.6659,0,3.6626,3.6602,3.667,3.6662,3.6661,3.6712,3.6704,3.6741,3.6727,3.6775,3.6785,3.6762,3.6798,3.6772,3.681,3.6795,3.6876,3.6858,3.6872,3.6866,3.6928,3.692,3.7141,3.7166,3.697,3.6971,3.6973,0,3.6729,3.6776,3.6772,3.6793,3.6796,3.6832,3.685,3.6815,3.6835,3.6846,3.6882,3.6914,3.6936,3.6997,3.6984,3.7011,3.6991,3.7066,3.6994,3.7001,3.6986,3.6982,3.6985,3.7079,3.7082,3.7084,3.7085,0,3.6912,3.6897,3.6925,3.6947,3.697,3.6987,3.6999,3.702,3.6984,3.701,3.7045,3.7063,3.7099,3.713,3.7152,3.7152,3.7112,3.7109,3.7123,3.7131,3.7135,3.7129,3.6907,3.7103,3.7101,3.71,3.7099,3.7098,3.7048,3.7085,3.7087,3.7118,3.7124,3.7136,3.7169,3.7158,3.7187,3.7212,3.719,3.7232,3.7236,3.7261,3.7266,3.7298,3.7267,3.729,3.7295,3.73,3.7306,3.7134,3.7303,3.7302,3.7302,3.7301,3.7301,0,3.7224,3.7222,3.7251,3.7269,3.7294,3.7254,3.7266,3.7288,3.7325,3.7333,3.7356,3.7395,3.7425,3.7413,3.7439,3.7466,3.7448,3.7474,3.7469,3.7469,3.7335,3.7317,3.7488,3.7488,3.7487,3.7487,3.7487,3.7487,3.7319,3.7379,3.7364,3.7426,3.7423,3.7462,3.7471,3.7482,3.7487,3.7533,3.7556,3.7549,3.7548,3.7573,3.7598,3.7593,3.7603,3.7635,3.7624,3.7498,3.7479,3.7461,3.7444,3.7638,3.7639,3.7754,3.7755,3.7756]},{"header":{"parameterUnit":"m.s-1","parameterCategory":1,"la1":30.2991,"la2":30.254,"lo1":-89.0895,"lo2":-89.0444,"dy":0.0017,"dx":0.0017,"nx":28,"ny":28,"refTime":"2024-07-19T21:00:00:Z","depth":0,"parameterNumber":3,"parameterNumberName":"V-component_of_WINDS"},"data":[0,0,0,0,0,0,0,0,0,0,0,0,0,0,0,0,0,0,0,0,0,0,0,0,0,0,0,0,0,0,0,0,0,0,0,0,0,0,0,0,0,0,0,0,0,0,0,0,0,0,0,0,0,0,0,0,0,0,3.7418,3.7418,0,3.7466,3.7466,3.7467,3.7435,3.7434,3.7433,3.7431,3.7479,3.7481,3.7484,0,0,0,0,0,0,0,0,0,0,0,0,0,3.7296,3.7299,3.7418,3.7419,3.7419,3.7466,3.7466,3.7467,3.7436,3.7434,3.7432,3.7431,3.7478,3.7481,3.7484,0,0,0,0,0,0,0,0,0,0,0,0,0,3.7347,3.7299,3.7418,3.7409,3.7409,3.7465,3.7466,3.7467,3.7436,3.7434,3.7432,3.743,3.7477,3.7481,3.7485,3.7552,0,0,3.7497,3.7498,0,0,0,0,0,0,0,0,3.7344,3.7351,3.741,3.741,3.741,3.7442,3.7441,3.7496,3.7437,3.7426,3.7431,3.7429,3.7468,3.7473,3.7487,3.7554,3.7556,3.7497,3.7499,3.7501,3.7502,0,0,0,0,0,0,0,3.7341,3.7349,3.7437,3.7411,3.7411,3.7402,3.7407,3.7451,3.7459,3.7427,3.7424,3.743,3.7468,3.7483,3.7487,3.7557,3.7497,3.75,3.7503,3.7504,3.7678,3.768,0,0,0,0,0,0,3.7338,3.7347,3.7435,3.7438,3.7371,3.7406,3.7411,3.7434,3.7458,3.746,3.7432,3.7429,3.7477,3.7483,3.7489,3.7567,3.7501,3.7505,3.7507,3.7676,3.7679,3.7681,0,0,0,0,0,0,3.7336,3.7346,3.7433,3.7392,3.7402,3.741,3.7436,3.7436,3.7451,3.7462,3.7463,3.7446,3.7476,3.7483,3.7536,3.7568,3.7506,3.751,3.7673,3.7677,3.768,3.7724,0,0,0,0,0,0,3.7332,3.7346,3.7373,3.7393,3.7405,3.7481,3.7438,3.7439,3.7458,3.7454,3.7476,3.7477,3.7475,3.753,3.754,3.7572,3.7513,3.767,3.7675,3.7679,3.772,3.7729,3.7736,0,0,0,0,0,3.7328,3.7384,3.7374,3.7385,3.7438,3.7483,3.7489,3.7485,3.7461,3.7487,3.7493,3.7477,3.7563,3.7536,3.7546,3.7581,3.7668,3.7674,3.7678,3.7716,3.7727,3.7736,0,0,0,0,0,0,3.7368,3.7386,3.7376,3.744,3.746,3.7477,3.751,3.7498,3.7525,3.752,3.7513,3.7518,3.7572,3.7582,3.7551,3.7645,3.7612,3.7619,3.7637,3.7647,3.7655,3.7651,3.7516,0,0,0,0,0,3.7384,3.7419,3.7433,3.7488,3.7499,3.7503,3.7522,3.7517,3.7537,3.7545,3.7556,3.7576,3.7607,3.7628,3.7657,3.7721,3.7724,3.775,3.7758,3.7765,3.7771,3.7802,3.7813,3.7698,3.7698,3.7698,0,0,3.7418,3.7432,3.7455,3.7497,3.7511,3.7546,3.751,3.755,3.7575,3.7551,3.7601,3.7609,3.763,3.7688,3.7714,3.7697,3.7803,3.7771,3.7776,3.7779,3.7808,3.7819,3.7829,3.7701,3.7701,3.77,0,0,3.7497,3.7513,3.7559,3.7574,3.7596,3.7598,3.7609,3.7628,3.7632,3.7681,3.7663,3.7693,3.7748,3.7763,3.7777,3.7858,3.7843,3.7868,3.7911,3.7941,3.795,3.7958,3.7984,3.7994,3.7875,3.7875,3.7875,0,3.7537,3.7589,3.7584,3.7624,3.7641,3.7621,3.7666,3.768,3.7711,3.7723,3.7705,3.777,3.7784,3.7843,3.7862,3.7876,3.7886,3.7865,3.7949,3.7957,3.7965,3.799,3.8,3.7877,3.7877,3.7877,3.7877,0,3.7635,3.7671,3.7706,3.7735,3.7756,3.7799,3.7798,3.782,3.7812,3.7815,3.7864,3.7879,3.7909,3.7923,3.7917,3.7981,3.7969,3.795,3.7916,3.7978,3.8002,3.8011,3.7881,3.788,3.788,3.7879,0,0,3.7742,3.7765,3.7778,3.7789,3.7811,3.7839,3.7879,3.7908,3.7926,3.7948,3.7979,3.8025,3.8006,3.8023,3.8018,3.8045,3.8104,3.8022,3.8022,3.8034,3.8172,3.8184,3.8196,3.8094,3.8096,3.8097,3.8169,0,3.782,3.7891,3.7885,3.7951,3.7982,3.7962,3.7996,3.8012,3.8016,3.8042,3.8046,3.8077,3.8052,3.8061,3.8087,3.8091,3.8131,3.8086,3.8122,3.8123,3.8115,3.8208,3.8223,3.829,3.8178,3.818,3.8181,0,3.7922,3.7945,3.8014,3.8027,3.804,3.8072,3.8096,3.8123,3.8139,3.814,3.8157,3.8146,3.8184,3.815,3.8201,3.8171,3.8185,3.8189,3.8191,3.8193,3.8155,3.8211,3.8311,3.8321,3.8196,3.8195,3.8194,0,3.799,3.8038,3.8085,3.8095,3.8113,3.8135,3.8143,3.8158,3.8175,3.8196,3.8207,3.8233,3.8247,3.8266,3.8262,3.8238,3.8313,3.8279,3.8313,3.8313,3.8329,3.8328,3.8431,3.8341,3.8341,3.8341,3.834,0,3.8077,3.8119,3.8115,3.8143,3.8188,3.8181,3.8226,3.8232,3.8244,3.8272,3.8256,3.8282,3.8276,3.8302,3.8299,3.834,3.8347,3.8346,3.8345,3.8347,3.8347,3.8355,3.8349,3.8343,3.8343,3.8342,3.8342,0,3.816,3.816,3.8208,3.822,3.8224,3.8256,3.8266,3.8292,3.8293,3.8328,3.8336,3.8337,3.8366,3.8364,3.8397,3.8395,3.8445,3.8439,3.8439,3.8437,3.8469,3.8465,3.858,3.8594,3.8497,3.8498,3.8499,0,3.8215,3.8247,3.8261,3.8278,3.8288,3.8316,3.8332,3.8326,3.8343,3.8363,3.8385,3.8413,3.8434,3.8481,3.8484,3.8509,3.8502,3.854,3.8505,3.8505,3.8499,3.8497,3.8498,3.8547,3.8548,3.8549,3.8549,0,3.8312,3.8309,3.8334,3.8357,3.8377,3.8395,3.8412,3.8427,3.8421,3.8442,3.847,3.8487,3.8519,3.8545,3.8568,3.8575,3.8561,3.856,3.8569,3.857,3.8568,3.8567,3.8455,3.8558,3.8557,3.8556,3.8556,3.8555,3.8381,3.8407,3.842,3.8446,3.8458,3.8473,3.8497,3.85,3.8524,3.8549,3.8543,3.8575,3.8588,3.8617,3.8626,3.865,3.8636,3.8649,3.8652,3.8655,3.8657,3.8566,3.8654,3.8654,3.8654,3.8653,3.8653,0,3.8475,3.8481,3.8506,3.8529,3.8549,3.8533,3.855,3.8568,3.8596,3.8609,3.863,3.8661,3.8686,3.8691,3.8714,3.8732,3.8725,3.8738,3.8735,3.8737,3.867,3.8659,3.8742,3.8742,3.8742,3.8742,3.8742,3.8742,3.8525,3.8567,3.8565,3.8611,3.8617,3.8647,3.8658,3.8671,3.8681,3.8716,3.8737,3.8739,3.8748,3.8771,3.8793,3.8793,3.8802,3.8816,3.8814,3.8751,3.8742,3.8733,3.8723,3.8819,3.8819,3.8879,3.8879,3.888]}]]